Regional Weather Roundup
Issued by NWS

Home | Current Version | Previous Version | Graphics & Text | Print | Product List | Glossary On
Versions: 1 2 3 4 5 6 7 8 9 10 11 12 13 14 15 16 17 18 19 20 21 22 23 24 25 26 27 28
000
ASUS45 KTFX 270810
RWRMT
MONTANA REGIONAL WEATHER ROUNDUP
NATIONAL WEATHER SERVICE GREAT FALLS MT
100 AM MST MON FEB 27 2017

NOTE: "FAIR" INDICATES FEW OR NO CLOUDS BELOW 12000 FEET WITH NO
SIGNIFICANT WEATHER AND/OR OBSTRUCTIONS TO VISIBILITY.

MTZ001>007-043-270900-
WEST OF THE DIVIDE

CITY           SKY/WX    TMP DP  RH WIND       PRES   REMARKS
KALISPELL      CLOUDY    17   9  70 N10       29.64S WCI   5
MISSOULA       LGT SNOW  27  27 100 SW3       29.59S VSB 1
BUTTE          CLOUDY    20   8  60 NW6       29.52R WCI  12
MULLAN PASS    PTCLDY    14  12  92 CALM      29.46S
ANACONDA         N/A     21  18  86 SE7       29.53S WCI  13
DEER LODGE       N/A     18  14  86 NW7       29.57S WCI   8
EUREKA           N/A     18  12  79 CALM      29.68R
HAMILTON         N/A     27  21  80 SE8       29.58  WCI  18
LIBBY            N/A     18  16  93 CALM      29.63S
PLAINS           N/A     26  20  78 CALM      29.66R
$$

MTZ008-052>055-270900-
SOUTHWEST MONTANA

CITY           SKY/WX    TMP DP  RH WIND       PRES   REMARKS
BOZEMAN        CLOUDY    24  15  68 S7        29.55F WCI  16
DILLON         CLOUDY    17   7  64 W7        29.53S WCI   8
W YELLOWSTONE  LGT SNOW  16  14  93 W5        29.53S VSB 3/4
ENNIS          CLOUDY    23  14  68 S10       29.58S WCI  12
THREE FORKS      N/A     20 -14  21 NW8       29.60S WCI  10
TWIN BRIDGES     N/A     24   7  48 SE2       29.59F
$$

MTZ009-010-012-014-046-048-049-054-270900-
EAST SLOPES AND CENTRAL MONTANA

CITY           SKY/WX    TMP DP  RH WIND       PRES   REMARKS
CUT BANK       LGT SNOW  10   8  92 N5        29.68F FOG
GREAT FALLS    LGT SNOW  15  12  88 N7        29.67F FOG     WCI   5
MALMSTROM AFB  LGT SNOW  15  14  96 NE9       29.69S WCI   3
HELENA         LGT SNOW  16  14  92 W8        29.64S FOG     WCI   5
AUGUSTA        LGT SNOW  10   7  88 N10       29.63F WCI  -4
BOWMANS CRNR   LGT SNOW  10   7  91 NW7       29.62F WCI  -2
CHOTEAU          N/A     12   9  85 N3        29.69F FOG
CONRAD           N/A     13  11  92 NW5       29.74F
POWER          LGT SNOW  12   9  89 N7        29.67S WCI   1
RAYNESFORD     FLURRIES  15  10  83 SE6       29.64F WCI   6
ULM            LGT SNOW  15  13  94 MISG      29.68S
$$

MTZ011-013-016-021-045-047-050-051-270900-
NORTH CENTRAL MONTANA

CITY           SKY/WX    TMP DP  RH WIND       PRES   REMARKS
HAVRE          LGT SNOW  15  11  83 NE9       29.78S FOG     WCI   3
LEWISTOWN      LGT SNOW  15  12  88 E8        29.61S FOG     WCI   4
N BAR RANCH    LGT SNOW  14  10  85 E5        29.63S
CHINOOK          N/A     16  10  79 NE3       29.80R
DENTON         LGT SNOW  16  14  93 N12       29.63  WCI   3
FORT BENTON      N/A     16  12  86 N14       29.74F WCI   1
GEYSER         LGT SNOW  13  11  92 NE6       29.63S WCI   4
GRASS RANGE    LGT SNOW  16  15  95 E6        29.61F WCI   7
JUDITH GAP     LGT SNOW  12  10  88 NW12      29.57F WCI  -2
ROY            LGT SNOW  17  15  95 MISG      29.65F
STANFORD       LGT SNOW  13  11  93 N7        29.61  FOG     WCI   3
WINIFRED       LGT SNOW  16  15  95 NE10      29.65F FOG     WCI   3
$$

MTZ017>020-022>027-061-062-270900-
NORTHEAST MONTANA

CITY           SKY/WX    TMP DP  RH WIND       PRES   REMARKS
GLASGOW        LGT SNOW  18  14  84 NE5       29.78R FOG
JORDAN           N/A     19  15  84 NE8       29.72S WCI   9
SIDNEY         MOCLDY    21  17  84 CALM      29.80S
WOLF POINT     CLOUDY    16  10  77 CALM      29.81R
PLENTYWOOD       N/A     12   7  79 N8        29.79S WCI   1
POPLAR           N/A     12   9  85 NE5       29.81R
SCOBEY           N/A      8  -1  66 NW5       29.77F
$$

MTZ028>42-056>058-270900-
SOUTHCENTRAL AND SOUTHEAST MONTANA

CITY           SKY/WX    TMP DP  RH WIND       PRES   REMARKS
BAKER          CLOUDY    21  17  84 E9        29.72F WCI  11
BILLINGS       CLOUDY    22  18  85 NE10      29.60F WCI  11
LIVINGSTON     CLOUDY    26  12  55 W13       29.53S WCI  15
MILES CITY     CLOUDY    24  18  77 NE9       29.69F WCI  14
BIG TIMBER     CLOUDY    25  18  74 NE9       29.58R WCI  15
EKALAKA          N/A     21  16  81 SE9       29.66F WCI  11
FORSYTH          N/A     23  19  86 NE8       29.66F WCI  14
HARLOWTON      FLURRIES  16  13  86 NE10      29.59  WCI   4
LAUREL           N/A     24  16  71 N6        29.61F WCI  17
$$

REGIONAL REPORTS...DAKOTAS

CITY           SKY/WX    TMP DP  RH WIND       PRES   REMARKS
WILLISTON      PTCLDY    11   7  84 N13       29.82R WCI  -4
MINOT          CLOUDY    14  10  84 SW8       29.81R WCI   3
DICKINSON      CLOUDY    15  11  83 S7        29.74F WCI   5
BEACH            N/A    N/A N/A N/A MISG        N/A
CROSBY         CLOUDY    12   9  85 NW10      29.84R WCI  -1
TIOGA            N/A      7   7 100 NW5       29.81R
WATFORD CITY   CLOUDY    18  14  86 SW3       29.80S
BISMARCK       CLOUDY    12  10  92 CALM      29.86S
GRAND FORKS    CLEAR      7   0  73 S7        29.91R WCI  -5
FARGO          CLOUDY    21  15  78 S8        29.92R WCI  11
BUFFALO SD       N/A     23  20  88 E7        29.65F WCI  15
RAPID CITY     CLOUDY    25  15  66 SE6       29.72F WCI  18
$$

REGIONAL REPORTS...WYOMING/IDAHO/WASHINGTON

CITY           SKY/WX    TMP DP  RH WIND       PRES   REMARKS
GILLETTE       CLOUDY    24  11  57 SW7       29.61F WCI  16
SHERIDAN       CLOUDY    23  12  62 SE7       29.59F WCI  15
BUFFALO WY     CLOUDY    19   5  54 SW5       29.57F
CODY           CLEAR     20   8  60 SE8       29.57F WCI  10
YELLOWSTONE LA   N/A      9   7  92 CALM      29.51F
IDAHO FALLS    CLOUDY    23  22  96 S10       29.60F WCI  12
SALMON         CLOUDY    27  14  59 CALM      29.60S
BOISE          MOCLDY    30  23  75 SE14      29.64F WCI  19
SPOKANE        FOG       26  25  96 W6        29.64S VSB 1/2 WCI  19
$$

REGIONAL REPORTS...ALBERTA

CITY           SKY/WX    TMP DP  RH WIND       PRES   REMARKS
EDMONTON       CLEAR      5  -4  66 SW8       29.71F WCI  -8
CALGARY        PTCLDY     5   1  85 S7        29.68F WCI  -7
LETHBRIDGE     FLURRIES   9   7  92 NE5       29.76S
MEDICINE HAT   CLEAR      1  -2  85 CALM      29.82F
WATERTON GATE    N/A      5   1  85 NE3         N/A
CARDSTON         N/A      9   3  78 E2          N/A
MILK RIVER       N/A      9   7  92 NE7         N/A  WCI  -3
$$

REGIONAL REPORTS...SASKATCHEWAN

CITY           SKY/WX    TMP DP  RH WIND       PRES   REMARKS
SWIFT CURRENT  CLOUDY     1  -2  85 N3        29.77R
REGINA         PTCLDY     1  -2  85 NW9       29.81S WCI -14
SASKATOON      CLEAR    -11 -15  84 NW7       29.87S WCI -26
CYPRESS HILLS    N/A     -2  -8  78 N2          N/A
VAL MARIE        N/A      9   5  85 N7          N/A  WCI  -3
ROCKGLEN         N/A      3   0  85 N5          N/A
ASSINIBOIA       N/A      0  -4  85 SW7         N/A  WCI -13
$$




USA.gov is the U.S. government's official web portal to all federal, state and local government web resources and services.